Ludington, MI

8:25 AM EST on November 13, 2019 (GMT -0500)
Mason County

Weather History for KLDM - September, 2019

Change the Weather History Date:

Friday, September 27, 2019

  Actual Average Record
Temperature  
Mean Temperature 62 °F -  
Max Temperature 68 °F 66 °F 79 °F (1979)
Min Temperature 56 °F 47 °F 26 °F (1957)
Degree Days  
Heating Degree Days 3    
Growing Degree Days 12 (Base 50)    
Moisture  
Dew Point 55 °F    
Average Humidity 83    
Maximum Humidity 96    
Minimum Humidity 61    
Precipitation  
Precipitation 0.25 in - - ()
Sea Level Pressure  
Sea Level Pressure 29.79 in    
Wind  
Wind Speed 7 mph (South)    
Max Wind Speed 20 mph    
Max Gust Speed 28 mph    
Visibility 9 miles    
Events Rain    
Averages and records for this station are not official NWS values.
T = Trace of Precipitation, MM = Missing Value Source: NWS Daily Summary

Daily Weather History Graph

Daily Weather History Graph

Search for Another Location

Airport or City:

Astronomy

Sep. 27, 2019 Rise Set
Actual Time 7:38 AM EDT 7:34 PM EDT
Civil Twilight 7:09 AM EDT 8:02 PM EDT
Nautical Twilight 6:36 AM EDT 8:36 PM EDT
Astronomical Twilight 6:01 AM EDT 9:10 PM EDT
Moon 5:53 AM EDT (9/27) 7:28 PM EDT (9/27)
Length of Visible Light 12h 53m
Length of Day
11h 55m
Waning Crescent, 2% of the Moon is Illuminated
Sep 27
Waning Crescent
Sep 28
New
Oct 5
First Quarter
Oct 13
Full
Oct 21
Last Quarter

Hourly Weather History & Observations

Time (EDT) Temp. Dew Point Humidity Pressure Visibility Wind Dir Wind Speed Gust Speed Precip Events Conditions
12:15 AM 57.4 °F 47.8 °F 70% 29.88 in 10.0 mi South 6.9 mph - N/A   Mostly Cloudy
12:16 AM 57.4 °F 47.8 °F 70% 29.88 in 10.0 mi South 5.8 mph - N/A   Mostly Cloudy
12:35 AM 58.1 °F 48.2 °F 70% 29.87 in 10.0 mi South 8.1 mph - N/A   Scattered Clouds
12:58 AM 58.3 °F 48.6 °F 70% 29.87 in 10.0 mi South 8.1 mph - N/A   Mostly Cloudy
1:16 AM 58.5 °F 49.1 °F 71% 29.87 in 10.0 mi South 5.8 mph - N/A   Overcast
1:35 AM 58.5 °F 50.0 °F 73% 29.86 in 10.0 mi South 6.9 mph - N/A   Overcast
1:36 AM 58.5 °F 50.0 °F 73% 29.86 in 10.0 mi South 8.1 mph - N/A   Overcast
1:55 AM 58.5 °F 50.4 °F 74% 29.87 in 10.0 mi South 5.8 mph - N/A   Overcast
1:56 AM 58.5 °F 50.4 °F 74% 29.87 in 10.0 mi South 6.9 mph - N/A   Overcast
2:18 AM 59.0 °F 51.1 °F 75% 29.87 in 10.0 mi SSE 6.9 mph - N/A   Overcast
2:37 AM 59.0 °F 51.8 °F 77% 29.87 in 10.0 mi South 4.6 mph - N/A   Overcast
2:55 AM 59.7 °F 52.0 °F 76% 29.87 in 10.0 mi South 8.1 mph - N/A   Overcast
3:15 AM 60.1 °F 52.9 °F 77% 29.86 in 10.0 mi South 5.8 mph - N/A   Overcast
3:16 AM 60.1 °F 52.9 °F 77% 29.86 in 10.0 mi South 6.9 mph - N/A   Overcast
3:35 AM 60.3 °F 53.1 °F 77% 29.86 in 10.0 mi South 8.1 mph - N/A   Overcast
3:40 AM 60.4 °F 53.2 °F 77% 29.86 in 10.0 mi South 5.8 mph - N/A   Overcast
3:58 AM 60.8 °F 53.4 °F 77% 29.86 in 10.0 mi South 4.6 mph - N/A   Overcast
4:16 AM 60.8 °F 53.6 °F 77% 29.86 in 10.0 mi South 3.5 mph - N/A   Overcast
4:35 AM 61.0 °F 53.8 °F 77% 29.87 in 10.0 mi South 6.9 mph - N/A   Overcast
4:55 AM 59.0 °F 54.0 °F 83% 29.86 in 10.0 mi SE 4.6 mph - N/A   Overcast
5:19 AM 59.0 °F 53.8 °F 83% 29.86 in 10.0 mi SSE 5.8 mph - N/A Rain Rain
5:37 AM 58.1 °F 54.1 °F 87% 29.86 in 10.0 mi SE 4.6 mph - N/A Rain Light Rain
5:55 AM 57.2 °F 54.1 °F 89% 29.86 in 10.0 mi SE 4.6 mph - N/A   Overcast
6:15 AM 57.0 °F 54.3 °F 91% 29.86 in 10.0 mi Calm Calm - 0.01 in Rain Light Rain
6:35 AM 56.5 °F 54.3 °F 92% 29.86 in 10.0 mi Calm Calm - 0.01 in Rain Light Rain
6:40 AM 56.7 °F 54.3 °F 92% 29.86 in 10.0 mi Calm Calm - 0.01 in Rain Light Rain
6:58 AM 56.3 °F 54.7 °F 94% 29.85 in 7.0 mi Calm Calm - 0.03 in Rain Rain
7:16 AM 57.6 °F 54.5 °F 90% 29.85 in 10.0 mi SSE 4.6 mph - N/A   Overcast
7:35 AM 56.8 °F 54.9 °F 93% 29.83 in 10.0 mi SE 4.6 mph - 0.01 in   Overcast
7:55 AM 56.7 °F 54.9 °F 94% 29.81 in 10.0 mi SE 4.6 mph - 0.01 in   Mostly Cloudy
8:19 AM 57.4 °F 55.4 °F 93% 29.81 in 10.0 mi SE 5.8 mph - N/A   Overcast
8:37 AM 58.8 °F 54.1 °F 84% 29.81 in 10.0 mi SSE 8.1 mph - N/A   Overcast
8:55 AM 58.8 °F 53.2 °F 82% 29.80 in 10.0 mi SE 11.5 mph - N/A   Overcast
8:56 AM 58.6 °F 53.1 °F 82% 29.80 in 10.0 mi SE 10.4 mph - N/A   Overcast
9:15 AM 58.3 °F 51.6 °F 78% 29.79 in 10.0 mi SSE 9.2 mph - N/A   Overcast
9:35 AM 58.3 °F 49.3 °F 72% 29.79 in 10.0 mi SSE 11.5 mph 19.6 mph N/A   Overcast
9:58 AM 58.3 °F 47.8 °F 68% 29.78 in 10.0 mi SSE 8.1 mph - N/A   Overcast
10:16 AM 58.3 °F 47.1 °F 66% 29.76 in 10.0 mi SSE 11.5 mph 16.1 mph N/A   Overcast
10:35 AM 58.5 °F 46.6 °F 65% 29.77 in 10.0 mi SSE 9.2 mph 16.1 mph N/A   Overcast
10:55 AM 57.6 °F 48.6 °F 72% 29.76 in 10.0 mi SSE 9.2 mph - N/A Rain Light Rain
11:19 AM 58.1 °F 48.4 °F 70% 29.75 in 10.0 mi SSE 9.2 mph 17.3 mph N/A   Overcast
11:37 AM 59.4 °F 47.7 °F 65% 29.75 in 10.0 mi South 11.5 mph 18.4 mph N/A Rain Light Rain
1:55 PM 66.2 °F 52.5 °F 61% 29.70 in 10.0 mi South 15.0 mph 20.7 mph N/A   Overcast
2:19 PM 66.7 °F 54.3 °F 64% 29.69 in 10.0 mi South 13.8 mph 21.9 mph N/A   Overcast
2:37 PM 67.6 °F 56.5 °F 67% 29.68 in 10.0 mi SSW 12.7 mph 23.0 mph N/A   Scattered Clouds
2:55 PM 68.5 °F 58.1 °F 69% 29.68 in 10.0 mi SSW 17.3 mph 25.3 mph N/A   Scattered Clouds
3:15 PM 68.4 °F 57.7 °F 69% 29.68 in 10.0 mi SW 15.0 mph 26.5 mph N/A   Clear
3:35 PM 67.5 °F 59.2 °F 75% 29.68 in 10.0 mi SW 17.3 mph 25.3 mph N/A   Scattered Clouds
3:58 PM 66.9 °F 59.9 °F 78% 29.70 in 10.0 mi SSW 19.6 mph 27.6 mph N/A   Mostly Cloudy
4:16 PM 66.4 °F 59.5 °F 79% 29.70 in 10.0 mi SSW 12.7 mph 18.4 mph N/A   Overcast
4:35 PM 65.7 °F 59.2 °F 80% 29.70 in 10.0 mi SW 10.4 mph - N/A   Overcast
4:55 PM 64.9 °F 59.5 °F 83% 29.70 in 10.0 mi SSW 11.5 mph 19.6 mph N/A   Overcast
5:19 PM 63.3 °F 61.7 °F 94% 29.70 in 3.0 mi SW 10.4 mph 19.6 mph 0.01 in Rain Light Rain
5:37 PM 63.5 °F 62.2 °F 96% 29.71 in 4.0 mi SW 10.4 mph - 0.02 in Rain Heavy Rain
5:56 PM 63.5 °F 62.2 °F 96% 29.70 in 2.0 mi WSW 11.5 mph - 0.08 in Rain Rain
6:15 PM 63.5 °F 62.2 °F 96% 29.70 in 2.0 mi WSW 10.4 mph 16.1 mph 0.02 in   Heavy Drizzle
6:35 PM 63.5 °F 62.2 °F 96% 29.70 in 2.5 mi WSW 10.4 mph - 0.04 in   Heavy Drizzle
6:57 PM 63.5 °F 62.1 °F 95% 29.70 in 10.0 mi SW 9.2 mph - 0.04 in   Overcast
7:15 PM 63.5 °F 62.1 °F 95% 29.70 in 4.0 mi WSW 10.4 mph - N/A Rain Heavy Rain
7:35 PM 63.0 °F 61.7 °F 96% 29.71 in 3.0 mi West 4.6 mph - N/A   Drizzle
7:55 PM 62.6 °F 61.2 °F 95% 29.72 in 2.5 mi West 4.6 mph - N/A   Drizzle
8:18 PM 62.2 °F 61.0 °F 96% 29.73 in 4.0 mi West 3.5 mph - N/A   Overcast
8:36 PM 61.9 °F 60.8 °F 96% 29.76 in 4.0 mi WNW 5.8 mph - N/A Rain Light Rain
8:55 PM 61.7 °F 60.3 °F 95% 29.74 in 5.0 mi North 3.5 mph - 0.06 in Rain Light Rain
9:15 PM 61.3 °F 60.1 °F 96% 29.73 in 7.0 mi Calm Calm - 0.01 in Rain Light Rain
9:39 PM 61.2 °F 59.9 °F 96% 29.76 in 7.0 mi NW 4.6 mph - 0.01 in   Overcast
9:57 PM 61.2 °F 59.9 °F 96% 29.76 in 7.0 mi Calm Calm - 0.01 in   Overcast
10:15 PM 60.8 °F 59.7 °F 96% 29.76 in 7.0 mi NNW 3.5 mph - 0.01 in Rain Light Rain
10:35 PM 60.8 °F 59.7 °F 96% 29.76 in 7.0 mi North 4.6 mph - 0.01 in Rain Light Rain
10:55 PM 60.8 °F 59.4 °F 95% 29.74 in 10.0 mi NNE 3.5 mph - 0.02 in Rain Rain
11:00 PM 60.8 °F 59.4 °F 95% 29.75 in 10.0 mi North 4.6 mph - N/A Rain Light Rain
11:18 PM 60.8 °F 59.4 °F 95% 29.76 in 10.0 mi North 3.5 mph - N/A   Overcast
11:36 PM 60.4 °F 59.2 °F 96% 29.79 in 10.0 mi North 3.5 mph - N/A   Overcast
11:55 PM 60.3 °F 59.0 °F 96% 29.80 in 10.0 mi Calm Calm - N/A   Overcast